Weather History for Greenville, TX

Change the Weather History Date:

Sunday, June 9, 2013

  Actual Average Record
Temperature  
Mean Temperature 78 °F -  
Max Temperature 87 °F 85 °F 95 °F (2006)
Min Temperature 68 °F 70 °F 64 °F (2003)
Cooling Degree Days 12    
Growing Degree Days 28 (Base 50)    
Moisture  
Dew Point 65 °F    
Average Humidity 71    
Maximum Humidity 94    
Minimum Humidity 43    
Precipitation  
Precipitation 0.83 in - - ()
Sea Level Pressure  
Sea Level Pressure 29.90 in    
Wind  
Wind Speed 5 mph (SSW)    
Max Wind Speed 14 mph    
Max Gust Speed 29 mph    
Visibility 10 miles    
Events Rain , Thunderstorm    
Averages and records for this station are not official NWS values.
T = Trace of Precipitation, MM = Missing Value Source: NWS Daily Summary

Daily Weather History Graph

Daily Weather History Graph

Search for Another Location

Airport:

Trip Planner

Search our weather history database for the weather conditions in past years. The results will help you decide how hot, cold, wet, or windy it might be!

Date:

Astronomy

Jun. 09, 2013 Rise Set
Actual Time 6:14 AM CDT 8:32 PM CDT
Civil Twilight 5:46 AM CDT 9:00 PM CDT
Nautical Twilight 5:11 AM CDT 9:36 PM CDT
Astronomical Twilight 4:33 AM CDT 10:14 PM CDT
Moon 7:09 AM CDT (6/9) 9:23 PM CDT (6/9)
Length of Visible Light 15h 14m
Length of Day
14h 17m
New Moon, 1% of the Moon is Illuminated
Jun 9
New Moon
Jun 16
First Quarter
Jun 23
Full
Jun 29
Last Quarter
Jul 8
New

Hourly Weather History & Observations

Time (CDT) Temp. Heat Index Dew Point Humidity Pressure Visibility Wind Dir Wind Speed Gust Speed Precip Events Conditions
12:15 AM 69.8 °F - 62.6 °F 78% 29.89 in 10.0 mi SE 3.5 mph - N/A   Mostly Cloudy
12:35 AM 69.8 °F - 62.6 °F 78% 29.89 in 10.0 mi SE 4.6 mph - N/A   Mostly Cloudy
12:55 AM 71.6 °F - 62.6 °F 73% 29.90 in 10.0 mi SE 3.5 mph - N/A   Overcast
1:15 AM 71.6 °F - 62.6 °F 73% 29.89 in 10.0 mi SE 4.6 mph - N/A   Mostly Cloudy
1:35 AM 71.6 °F - 62.6 °F 73% 29.89 in 10.0 mi Calm Calm - N/A Rain Rain
1:55 AM 69.8 °F - 62.6 °F 78% 29.88 in 10.0 mi ESE 4.6 mph - N/A   Light Drizzle
2:15 AM 71.6 °F - 62.6 °F 73% 29.88 in 10.0 mi Calm Calm - N/A   Clear
2:35 AM 69.8 °F - 62.6 °F 78% 29.88 in 10.0 mi Calm Calm - N/A   Mostly Cloudy
2:55 AM 71.6 °F - 62.6 °F 73% 29.88 in 10.0 mi SE 4.6 mph - N/A   Overcast
3:15 AM 69.8 °F - 62.6 °F 78% 29.88 in 10.0 mi SE 5.8 mph - N/A   Scattered Clouds
3:35 AM 71.6 °F - 62.6 °F 73% 29.88 in 10.0 mi ESE 3.5 mph - N/A   Scattered Clouds
3:55 AM 69.8 °F - 62.6 °F 78% 29.89 in 10.0 mi SE 4.6 mph - N/A   Mostly Cloudy
4:15 AM 71.6 °F - 64.4 °F 78% 29.86 in 10.0 mi South 9.2 mph - N/A   Scattered Clouds
4:55 AM 71.6 °F - 64.4 °F 78% 29.89 in 10.0 mi South 6.9 mph - N/A   Clear
5:15 AM 71.6 °F - 64.4 °F 78% 29.88 in 10.0 mi South 8.1 mph - N/A Thunderstorm Clear
5:35 AM 71.6 °F - 64.4 °F 78% 29.87 in 10.0 mi South 6.9 mph - N/A   Clear
5:55 AM 71.6 °F - 66.2 °F 83% 29.88 in 10.0 mi South 5.8 mph - N/A   Mostly Cloudy
6:15 AM 71.6 °F - 66.2 °F 83% 29.89 in 10.0 mi South 8.1 mph - N/A Thunderstorm Mostly Cloudy
6:35 AM 71.6 °F - 66.2 °F 83% 29.90 in 10.0 mi West 3.5 mph - N/A Thunderstorm Overcast
6:55 AM 71.6 °F - 66.2 °F 83% 29.93 in 10.0 mi NW 6.9 mph - N/A Thunderstorm Overcast
7:15 AM 71.6 °F - 66.2 °F 83% 29.94 in 10.0 mi North 6.9 mph - N/A Thunderstorm Thunderstorm
7:35 AM 69.8 °F - 64.4 °F 83% 29.93 in 7.0 mi North 11.5 mph - 0.03 in Rain Heavy Rain
7:55 AM 68.0 °F - 64.4 °F 88% 29.93 in 1.0 mi East 5.8 mph - 0.23 in Rain , Thunderstorm Heavy Thunderstorms and Rain
8:15 AM 68.0 °F - 64.4 °F 88% 29.94 in 2.0 mi Calm Calm - 0.09 in Rain , Thunderstorm Heavy Thunderstorms and Rain
8:35 AM 68.0 °F - 64.4 °F 88% 29.94 in 1.2 mi West 12.7 mph - 0.48 in Rain , Thunderstorm Heavy Thunderstorms and Rain
8:55 AM 68.0 °F - 64.4 °F 88% 29.93 in 5.0 mi West 12.7 mph 18.4 mph 0.55 in Rain , Thunderstorm Heavy Thunderstorms and Rain
9:15 AM 68.0 °F - 62.6 °F 83% 29.91 in 10.0 mi SSW 9.2 mph - 0.02 in Rain , Thunderstorm Thunderstorms and Rain
9:35 AM 68.0 °F - 64.4 °F 88% 29.91 in 10.0 mi SSE 9.2 mph - 0.04 in Rain , Thunderstorm Light Thunderstorms and Rain
9:55 AM 68.0 °F - 64.4 °F 88% 29.91 in 10.0 mi SSE 9.2 mph - 0.05 in Rain Light Rain
10:15 AM 68.0 °F - 64.4 °F 88% 29.89 in 10.0 mi SSE 13.8 mph 23.0 mph N/A   Light Drizzle
10:35 AM 69.8 °F - 64.4 °F 83% 29.94 in 10.0 mi NW 12.7 mph 28.8 mph N/A   Light Drizzle
10:55 AM 71.6 °F - 64.4 °F 78% 29.94 in 10.0 mi WNW 5.8 mph - N/A   Scattered Clouds
11:15 AM 73.4 °F - 64.4 °F 73% 29.94 in 10.0 mi WNW 6.9 mph - N/A   Clear
11:35 AM 77.0 °F - 64.4 °F 65% 29.94 in 10.0 mi NNW 10.4 mph - N/A   Clear
11:55 AM 78.8 °F - 64.4 °F 61% 29.94 in 10.0 mi NW 10.4 mph - N/A   Clear
12:15 PM 78.8 °F - 62.6 °F 57% 29.93 in 10.0 mi WNW 10.4 mph - N/A   Clear
12:35 PM 80.6 °F 81.8 °F 62.6 °F 54% 29.93 in 10.0 mi NNW 5.8 mph - N/A   Clear
12:55 PM 80.6 °F 82.3 °F 64.4 °F 58% 29.92 in 10.0 mi NW 6.9 mph - N/A   Clear
1:15 PM 82.4 °F 83.9 °F 64.4 °F 54% 29.91 in 10.0 mi NW 9.2 mph - N/A   Clear
1:35 PM 82.4 °F 83.4 °F 62.6 °F 51% 29.91 in 10.0 mi WNW 6.9 mph - N/A   Clear
1:55 PM 82.4 °F 83.4 °F 62.6 °F 51% 29.90 in 10.0 mi NW 5.8 mph - N/A   Clear
2:15 PM 84.2 °F 85.0 °F 62.6 °F 48% 29.90 in 10.0 mi West 4.6 mph - N/A   Clear
2:35 PM 84.2 °F 85.0 °F 62.6 °F 48% 29.90 in 10.0 mi West 3.5 mph - N/A   Clear
2:55 PM 86.0 °F 86.6 °F 62.6 °F 45% 29.89 in 10.0 mi WSW 3.5 mph - N/A   Clear
3:15 PM 86.0 °F 87.3 °F 64.4 °F 48% 29.89 in 10.0 mi West 6.9 mph - N/A   Scattered Clouds
3:35 PM 86.0 °F 86.6 °F 62.6 °F 45% 29.89 in 10.0 mi Calm Calm - N/A   Clear
3:55 PM 86.0 °F 87.3 °F 64.4 °F 48% 29.89 in 10.0 mi NNW 4.6 mph - N/A   Clear
4:15 PM 87.8 °F 88.5 °F 62.6 °F 43% 29.89 in 10.0 mi Calm Calm - N/A   Scattered Clouds
4:35 PM 87.8 °F 88.5 °F 62.6 °F 43% 29.89 in 10.0 mi Calm Calm - N/A   Mostly Cloudy
4:55 PM 87.8 °F 89.4 °F 64.4 °F 46% 29.89 in 10.0 mi West 4.6 mph - N/A   Mostly Cloudy
5:15 PM 86.0 °F 87.3 °F 64.4 °F 48% 29.88 in 10.0 mi WSW 3.5 mph - N/A   Scattered Clouds
5:35 PM 86.0 °F 88.2 °F 66.2 °F 51% 29.89 in 10.0 mi SE 8.1 mph - N/A   Scattered Clouds
5:55 PM 86.0 °F 89.4 °F 68.0 °F 55% 29.89 in 10.0 mi SSE 5.8 mph - N/A   Overcast
6:15 PM 84.2 °F 86.6 °F 66.2 °F 55% 29.88 in 10.0 mi SSE 3.5 mph - N/A   Scattered Clouds
6:35 PM 86.0 °F 88.2 °F 66.2 °F 51% 29.88 in 10.0 mi SSE 4.6 mph - N/A   Clear
6:55 PM 86.0 °F 89.4 °F 68.0 °F 55% 29.88 in 10.0 mi SSE 5.8 mph - N/A   Clear
7:15 PM 84.2 °F 86.6 °F 66.2 °F 55% 29.88 in 10.0 mi SSE 3.5 mph - N/A   Clear
7:35 PM 82.4 °F 85.4 °F 68.0 °F 62% 29.88 in 10.0 mi SSE 4.6 mph - N/A   Clear
7:55 PM 82.4 °F 85.4 °F 68.0 °F 62% 29.89 in 10.0 mi SSE 4.6 mph - N/A   Clear
8:15 PM 80.6 °F 83.9 °F 69.8 °F 70% 29.88 in 10.0 mi SSE 3.5 mph - N/A   Clear
8:35 PM 77.0 °F - 69.8 °F 78% 29.89 in 10.0 mi SE 3.5 mph - N/A   Clear
8:55 PM 77.0 °F - 69.8 °F 78% 29.89 in 10.0 mi SE 4.6 mph - N/A   Clear
9:15 PM 77.0 °F - 69.8 °F 78% 29.90 in 10.0 mi South 5.8 mph - N/A   Clear
9:35 PM 73.4 °F - 69.8 °F 88% 29.90 in 10.0 mi Calm Calm - N/A   Clear
9:55 PM 73.4 °F - 68.0 °F 83% 29.91 in 10.0 mi Calm Calm - N/A   Clear
10:15 PM 73.4 °F - 68.0 °F 83% 29.92 in 10.0 mi Calm Calm - N/A   Clear
10:35 PM 73.4 °F - 68.0 °F 83% 29.92 in 10.0 mi Calm Calm - N/A   Clear
10:55 PM 71.6 °F - 68.0 °F 88% 29.93 in 10.0 mi Calm Calm - N/A   Clear
11:15 PM 71.6 °F - 68.0 °F 88% 29.94 in 10.0 mi Calm Calm - N/A   Clear
11:35 PM 69.8 °F - 68.0 °F 94% 29.94 in 10.0 mi Calm Calm - N/A   Clear
11:55 PM 71.6 °F - 68.0 °F 88% 29.94 in 10.0 mi Calm Calm - N/A   Clear